DIRECTV 15

Last updated on Tue Sep 22 2026 00:03:13 GMT+0000 (Coordinated Universal Time)

1 40663U 15026A 26264.54947889 -.00000106 00000+0 00000+0 0 9993 2 40663 0.0157 113.1108 0001174 40.7817 301.4910 1.00269040 41420
UTC large
Height (km)
Speed (km/s)
/
Latitude / Longitude
Inclination (degrees)
Orbital Period (minutes)
Azimuth
Elevation
Range (km)
Doppler Factor

Next 0 passes for location: London (51.5072 / 0.1276)

No passes found over London.
DIRECTV 15